When you browse on this site, cookies collect data to enhance your experience and personalize the content and advertising you see.
Visit our Privacy Policy to learn more. By continuing to use the site, you agree to this use of cookies and data.

Hourly Weather Mongu

Today, 9 August, Sunday

Time Temperature Precipitation Wind Pressure Humidity
00:00 +18°C° 0 mm 2 mps 676 mmHg 43%
01:00 +17°C° 0 mm 3 mps 676 mmHg 45%
02:00 +16°C° 0 mm 3 mps 676 mmHg 50%
03:00 +14°C° 0 mm 3 mps 675 mmHg 54%
04:00 +14°C° 0 mm 3 mps 675 mmHg 58%
05:00 +13°C° 0 mm 3 mps 675 mmHg 62%
06:00 +14°C° 0 mm 3 mps 675 mmHg 61%
07:00 +16°C° 0 mm 3 mps 676 mmHg 60%
08:00 +17°C° 0 mm 3 mps 677 mmHg 56%
09:00 +21°C° 0 mm 3 mps 678 mmHg 46%
10:00 +25°C° 0 mm 3 mps 678 mmHg 35%
11:00 +29°C° 0 mm 3 mps 679 mmHg 24%
12:00 +30°C° 0 mm 3 mps 678 mmHg 21%
13:00 +33°C° 0 mm 3 mps 677 mmHg 18%
14:00 +33°C° 0 mm 3 mps 677 mmHg 15%
15:00 +33°C° 0 mm 3 mps 676 mmHg 14%
16:00 +33°C° 0 mm 3 mps 676 mmHg 14%
17:00 +31°C° 0 mm 3 mps 675 mmHg 14%
18:00 +28°C° 0 mm 2 mps 675 mmHg 17%
19:00 +25°C° 0 mm 2 mps 675 mmHg 21%
20:00 +21°C° 0 mm 2 mps 674 mmHg 25%
21:00 +19°C° 0 mm 2 mps 674 mmHg 27%
22:00 +18°C° 0 mm 2 mps 675 mmHg 28%
23:00 +17°C° 0 mm 2 mps 675 mmHg 30%

Tomorrow, 10 August, Monday

Time Temperature Precipitation Wind Pressure Humidity
00:00 +16°C° 0 mm 2 mps 675 mmHg 32%
01:00 +16°C° 0 mm 2 mps 674 mmHg 35%
02:00 +15°C° 0 mm 1 mps 674 mmHg 37%
03:00 +14°C° 0 mm 2 mps 674 mmHg 40%
04:00 +13°C° 0 mm 2 mps 674 mmHg 43%
05:00 +13°C° 0 mm 2 mps 673 mmHg 46%
06:00 +14°C° 0 mm 2 mps 674 mmHg 43%
07:00 +15°C° 0 mm 2 mps 675 mmHg 41%
08:00 +16°C° 0 mm 2 mps 675 mmHg 39%
09:00 +21°C° 0 mm 3 mps 676 mmHg 32%
10:00 +26°C° 0 mm 3 mps 677 mmHg 24%
11:00 +30°C° 0 mm 4 mps 678 mmHg 16%
12:00 +32°C° 0 mm 4 mps 677 mmHg 14%
13:00 +34°C° 0 mm 4 mps 677 mmHg 12%
14:00 +35°C° 0 mm 4 mps 676 mmHg 10%
15:00 +34°C° 0 mm 4 mps 675 mmHg 10%
16:00 +34°C° 0 mm 4 mps 675 mmHg 10%
17:00 +34°C° 0 mm 4 mps 674 mmHg 10%
18:00 +29°C° 0 mm 3 mps 674 mmHg 14%
19:00 +26°C° 0 mm 3 mps 674 mmHg 17%
20:00 +23°C° 0 mm 2 mps 674 mmHg 20%
21:00 +21°C° 0 mm 2 mps 674 mmHg 22%
22:00 +19°C° 0 mm 2 mps 674 mmHg 25%
23:00 +18°C° 0 mm 2 mps 674 mmHg 27%

Day after tomorrow, 11 August, Tuesday

Time Temperature Precipitation Wind Pressure Humidity
00:00 +17°C° 0 mm 2 mps 674 mmHg 29%
01:00 +17°C° 0 mm 2 mps 674 mmHg 31%
02:00 +16°C° 0 mm 2 mps 673 mmHg 33%
03:00 +16°C° 0 mm 2 mps 673 mmHg 33%
04:00 +15°C° 0 mm 2 mps 673 mmHg 32%
05:00 +15°C° 0 mm 2 mps 673 mmHg 31%
06:00 +15°C° 0 mm 2 mps 674 mmHg 30%
07:00 +16°C° 0 mm 2 mps 675 mmHg 29%
08:00 +17°C° 0 mm 2 mps 676 mmHg 27%
09:00 +21°C° 0 mm 3 mps 677 mmHg 22%
10:00 +26°C° 0 mm 3 mps 677 mmHg 17%
11:00 +30°C° 0 mm 4 mps 678 mmHg 12%
12:00 +31°C° 0 mm 3 mps 677 mmHg 11%
13:00 +34°C° 0 mm 3 mps 677 mmHg 10%
14:00 +35°C° 0 mm 3 mps 676 mmHg 9%
15:00 +35°C° 0 mm 3 mps 675 mmHg 9%
16:00 +34°C° 0 mm 3 mps 675 mmHg 9%
17:00 +34°C° 0 mm 2 mps 674 mmHg 10%
18:00 +30°C° 0 mm 2 mps 674 mmHg 12%
19:00 +26°C° 0 mm 2 mps 674 mmHg 15%
20:00 +23°C° 0 mm 2 mps 674 mmHg 18%
21:00 +21°C° 0 mm 2 mps 674 mmHg 19%
22:00 +20°C° 0 mm 2 mps 674 mmHg 20%
23:00 +19°C° 0 mm 2 mps 674 mmHg 21%

12 August, Wednesday

Time Temperature Precipitation Wind Pressure Humidity
00:00 +18°C° 0 mm 2 mps 674 mmHg 22%
01:00 +17°C° 0 mm 2 mps 674 mmHg 24%
02:00 +16°C° 0 mm 2 mps 673 mmHg 25%
03:00 +15°C° 0 mm 2 mps 673 mmHg 27%
04:00 +14°C° 0 mm 2 mps 673 mmHg 28%
05:00 +13°C° 0 mm 2 mps 673 mmHg 30%
06:00 +15°C° 0 mm 2 mps 674 mmHg 28%
07:00 +16°C° 0 mm 2 mps 675 mmHg 27%
08:00 +17°C° 0 mm 2 mps 676 mmHg 25%
09:00 +23°C° 0 mm 2 mps 676 mmHg 20%
10:00 +27°C° 0 mm 3 mps 677 mmHg 16%
11:00 +33°C° 0 mm 3 mps 678 mmHg 11%
12:00 +34°C° 0 mm 3 mps 677 mmHg 10%
13:00 +35°C° 0 mm 3 mps 677 mmHg 9%
14:00 +36°C° 0 mm 3 mps 676 mmHg 7%
15:00 +36°C° 0 mm 3 mps 675 mmHg 7%
16:00 +36°C° 0 mm 3 mps 675 mmHg 8%
17:00 +35°C° 0 mm 3 mps 674 mmHg 8%
18:00 +31°C° 0 mm 3 mps 674 mmHg 10%
19:00 +27°C° 0 mm 3 mps 674 mmHg 13%
20:00 +23°C° 0 mm 2 mps 674 mmHg 15%
21:00 +21°C° 0 mm 2 mps 674 mmHg 16%
22:00 +20°C° 0 mm 2 mps 674 mmHg 18%
23:00 +19°C° 0 mm 2 mps 674 mmHg 19%

13 August, Thursday

Time Temperature Precipitation Wind Pressure Humidity
00:00 +19°C° 0 mm 3 mps 674 mmHg 20%
01:00 +19°C° 0 mm 3 mps 674 mmHg 21%
02:00 +18°C° 0 mm 4 mps 674 mmHg 22%
03:00 +17°C° 0 mm 3 mps 674 mmHg 25%
04:00 +16°C° 0 mm 3 mps 673 mmHg 27%
05:00 +15°C° 0 mm 2 mps 673 mmHg 30%
06:00 +16°C° 0 mm 2 mps 674 mmHg 28%
07:00 +17°C° 0 mm 2 mps 675 mmHg 27%
08:00 +18°C° 0 mm 2 mps 676 mmHg 25%
09:00 +22°C° 0 mm 3 mps 676 mmHg 20%
10:00 +27°C° 0 mm 5 mps 677 mmHg 15%
11:00 +32°C° 0 mm 6 mps 678 mmHg 11%
12:00 +34°C° 0 mm 5 mps 677 mmHg 10%
13:00 +35°C° 0 mm 5 mps 676 mmHg 9%
14:00 +36°C° 0 mm 4 mps 676 mmHg 8%
15:00 +36°C° 0 mm 4 mps 675 mmHg 8%
16:00 +36°C° 0 mm 4 mps 675 mmHg 8%
17:00 +35°C° 0 mm 4 mps 674 mmHg 8%
18:00 +31°C° 0 mm 3 mps 674 mmHg 10%
19:00 +27°C° 0 mm 3 mps 674 mmHg 11%
20:00 +24°C° 0 mm 2 mps 674 mmHg 13%
21:00 +21°C° 0 mm 2 mps 674 mmHg 15%
22:00 +20°C° 0 mm 3 mps 674 mmHg 16%
23:00 +19°C° 0 mm 3 mps 674 mmHg 18%

14 August, Friday

Time Temperature Precipitation Wind Pressure Humidity
00:00 +18°C° 0 mm 3 mps 674 mmHg 19%
01:00 +18°C° 0 mm 3 mps 673 mmHg 20%
02:00 +17°C° 0 mm 3 mps 673 mmHg 22%
03:00 +16°C° 0 mm 2 mps 673 mmHg 23%
04:00 +16°C° 0 mm 2 mps 673 mmHg 24%
05:00 +15°C° 0 mm 2 mps 673 mmHg 25%
06:00 +16°C° 0 mm 3 mps 674 mmHg 24%
07:00 +18°C° 0 mm 3 mps 675 mmHg 22%
08:00 +19°C° 0 mm 4 mps 676 mmHg 20%
09:00 +23°C° 0 mm 5 mps 676 mmHg 18%
10:00 +27°C° 0 mm 5 mps 677 mmHg 15%
11:00 +32°C° 0 mm 5 mps 677 mmHg 12%
12:00 +33°C° 0 mm 5 mps 676 mmHg 11%
13:00 +35°C° 0 mm 4 mps 676 mmHg 9%
14:00 +36°C° 0 mm 4 mps 675 mmHg 8%
15:00 +36°C° 0 mm 4 mps 674 mmHg 8%
16:00 +35°C° 0 mm 4 mps 674 mmHg 8%
17:00 +35°C° 0 mm 3 mps 673 mmHg 8%
18:00 +30°C° 0 mm 3 mps 673 mmHg 11%
19:00 +27°C° 0 mm 3 mps 673 mmHg 13%
20:00 +23°C° 0 mm 2 mps 672 mmHg 16%
21:00 +21°C° 0 mm 2 mps 672 mmHg 17%
22:00 +20°C° 0 mm 2 mps 672 mmHg 18%
23:00 +18°C° 0 mm 3 mps 673 mmHg 19%
Show more